Regional Weather Roundup
Issued by NWS Sioux Falls, SD

Home | Current Version | Previous Version | Graphics & Text | Print | Product List | Glossary Off
Versions: 1 2 3 4 5 6 7 8 9 10 11 12 13 14 15 16 17 18 19 20 21 22 23 24 25 26 27 28 29 30 31 32 33 34 35 36 37 38 39 40 41 42 43 44 45 46 47 48 49 50

000
ASUS43 KFSD 062210
RWRFSD

WEATHER ROUNDUP FOR SE SOUTH DAKOTA/SW MINNESOTA/NW IOWA
NATIONAL WEATHER SERVICE SIOUX FALLS SD
500 PM CDT MON JUL 06 2015

NOTE: "FAIR" INDICATES FEW OR NO CLOUDS BELOW 12,000 FEET WITH NO
SIGNIFICANT WEATHER AND OR OBSTRUCTIONS TO VISIBILITY.


SDZ038>040-050-052>070-062300-
SOUTHEAST SOUTH DAKOTA

CITY           SKY/WX    TMP DP  RH WIND       PRES   REMARKS
BROOKINGS      PTSUNNY   70  55  60 N20       30.08R
CHAMBERLAIN    PTSUNNY   73  58  60 NE10      30.12R
HURON          SUNNY     73  55  53 N16G24    30.09R HAZE
MADISON        FAIR      70  57  64 N18       30.07R
MITCHELL       SUNNY     74  57  55 N16G25    30.08R HAZE
SIOUX FALLS    CLOUDY    73  58  59 N14G25    30.03S SMOKE
WINNER         FAIR      77  52  41 N20       30.13R
YANKTON        MOSUNNY   75  59  57 N18       30.01F
$$

MNZ071-072-080-081-089-090-097-098-062300-
SOUTHWEST MINNESOTA

CITY           SKY/WX    TMP DP  RH WIND       PRES   REMARKS
FAIRMONT       CLOUDY    72  57  60 N13G21    29.96S
JACKSON          N/A     72  61  68 N13G20    29.99S HAZE
LUVERNE        MOSUNNY   72  55  56 N14G21    30.03
MARSHALL       MOSUNNY   70  54  56 N21       30.02S
PIPESTONE      MOSUNNY   72  55  56 N16       30.04S
REDWOOD FALLS  MOSUNNY   73  57  57 N10G24    29.99S HAZE
TRACY          MOSUNNY   71  59  65 N20       30.02S
WINDOM         SUNNY     72  57  60 N22       29.99S HAZE
WORTHINGTON    CLOUDY    72  55  56 N24       30.01S
$$

IAZ001>003-012>014-020>022-031-032-NEZ013-014-SDZ071-062300-
NORTHWEST IOWA

CITY           SKY/WX    TMP DP  RH WIND       PRES   REMARKS
CHEROKEE       MOSUNNY   73  62  68 N15G23    29.97S HAZE
DENISON        CLOUDY    72  64  78 N16G25    29.92S HAZE
ESTHERVILLE    PTSUNNY   72  60  66 N17G25    29.97S HAZE
LE MARS        MOSUNNY   73  61  64 N20G26    30.00S HAZE
ORANGE CITY      N/A     72  59  64 N13G24    30.00S HAZE
SHELDON        MOSUNNY   73  61  64 N18       29.99S HAZE
SIOUX CITY     PTSUNNY   76  61  59 N23       29.97S HAZE
SPENCER        CLOUDY    74  58  57 N20G28    29.98S HAZE
STORM LAKE     MOSUNNY   72  57  60 N18G31    29.98R HAZE
$$

ABBREVIATIONS USED IN REMARKS
   TC - TEMPERATURE IN CELSIUS
  WCI - WIND CHILL INDEX
   HX - HEAT INDEX
  VSB - VISIBILITY




USA.gov is the U.S. government's official web portal to all federal, state and local government web resources and services.